TimeEDT,TemperatureF,Dew PointF,Humidity,Sea Level PressureIn,VisibilityMPH,Wind Direction,Wind SpeedMPH,Gust SpeedMPH,PrecipitationIn,Events,Conditions,WindDirDegrees,DateUTC
12:53 AM,80.1,73.9,81,30.01,10.0,Calm,Calm,-,N/A,,Clear,0,2013-06-19 04:53:00
1:53 AM,80.1,75.0,85,30.01,10.0,Calm,Calm,-,N/A,,Clear,0,2013-06-19 05:53:00
2:53 AM,79.0,75.0,88,30.03,10.0,SE,4.6,-,N/A,,Clear,130,2013-06-19 06:53:00
3:53 AM,79.0,75.0,88,30.02,10.0,Calm,Calm,-,N/A,,Scattered Clouds,0,2013-06-19 07:53:00
4:03 AM,78.8,75.2,89,30.02,10.0,Calm,Calm,-,N/A,Thunderstorm,Scattered Clouds,0,2013-06-19 08:03:00
4:18 AM,78.8,75.2,89,30.02,10.0,Calm,Calm,-,N/A,,Partly Cloudy,0,2013-06-19 08:18:00
4:53 AM,79.0,73.0,82,30.01,10.0,ESE,5.8,-,N/A,,Scattered Clouds,120,2013-06-19 08:53:00
5:53 AM,79.0,75.0,88,30.01,10.0,West,3.5,-,0.00,,Overcast,270,2013-06-19 09:53:00
6:29 AM,78.8,73.4,83,30.01,10.0,ESE,3.5,-,N/A,,Scattered Clouds,120,2013-06-19 10:29:00
6:53 AM,78.1,75.0,90,30.02,10.0,SSW,4.6,-,N/A,,Scattered Clouds,200,2013-06-19 10:53:00
7:53 AM,81.0,75.0,82,30.03,10.0,SSW,4.6,-,N/A,,Clear,200,2013-06-19 11:53:00
8:53 AM,84.0,75.0,74,30.04,10.0,WSW,3.5,-,N/A,,Partly Cloudy,240,2013-06-19 12:53:00
9:53 AM,86.0,73.9,67,30.03,10.0,Variable,5.8,-,N/A,,Scattered Clouds,0,2013-06-19 13:53:00
10:53 AM,88.0,73.0,61,30.04,10.0,Variable,6.9,-,N/A,,Clear,0,2013-06-19 14:53:00
11:53 AM,87.1,73.0,63,30.04,10.0,West,4.6,-,N/A,,Mostly Cloudy,260,2013-06-19 15:53:00
12:38 PM,86.0,73.4,66,30.03,10.0,NW,10.4,-,N/A,Tornado,Funnel Cloud,310,2013-06-19 16:38:00
12:43 PM,86.0,73.4,66,30.03,10.0,WNW,9.2,-,N/A,,Overcast,290,2013-06-19 16:43:00
12:53 PM,88.0,73.9,63,30.03,10.0,West,9.2,-,N/A,,Mostly Cloudy,270,2013-06-19 16:53:00
1:01 PM,89.6,73.4,59,30.04,10.0,West,6.9,-,N/A,Thunderstorm,Thunderstorm,280,2013-06-19 17:01:00
1:46 PM,89.6,75.2,62,30.03,10.0,NNW,9.2,-,N/A,,Partly Cloudy,330,2013-06-19 17:46:00
1:53 PM,90.0,73.9,59,30.03,10.0,Variable,4.6,-,N/A,,Scattered Clouds,0,2013-06-19 17:53:00
2:53 PM,91.0,72.0,53,30.01,10.0,WNW,9.2,-,N/A,,Partly Cloudy,290,2013-06-19 18:53:00
3:51 PM,91.4,73.4,55,30.00,10.0,NW,11.5,-,N/A,Thunderstorm,Thunderstorm,310,2013-06-19 19:51:00
3:53 PM,90.0,73.0,57,30.00,10.0,WNW,11.5,-,N/A,Thunderstorm,Thunderstorm,300,2013-06-19 19:53:00
4:25 PM,89.6,73.4,59,30.00,10.0,West,11.5,-,N/A,,Clear,280,2013-06-19 20:25:00
4:53 PM,90.0,72.0,55,29.99,10.0,WNW,10.4,-,N/A,,Scattered Clouds,300,2013-06-19 20:53:00
5:53 PM,88.0,73.0,61,29.99,10.0,NNW,8.1,-,N/A,,Partly Cloudy,330,2013-06-19 21:53:00
6:53 PM,88.0,72.0,59,29.99,10.0,WNW,6.9,-,N/A,,Clear,300,2013-06-19 22:53:00
7:53 PM,86.0,73.0,65,30.01,10.0,WNW,8.1,-,N/A,,Clear,300,2013-06-19 23:53:00
8:53 PM,82.9,73.0,72,30.01,10.0,WNW,3.5,-,N/A,,Clear,290,2013-06-20 00:53:00
9:53 PM,82.9,73.9,74,30.04,10.0,West,4.6,-,N/A,,Clear,280,2013-06-20 01:53:00
10:53 PM,82.0,73.9,76,30.04,10.0,WNW,3.5,-,N/A,,Clear,290,2013-06-20 02:53:00
11:53 PM,81.0,73.9,79,30.05,10.0,West,4.6,-,N/A,,Clear,280,2013-06-20 03:53:00